This demonstration page uses our WeatherBlox Daily Observations layout. Learn more.

38.80484, -77.04692

Hourly Observations for July 13, 2019

Temp ( °F °C ) Dew Point ( °F °C ) Humidity (%) Winds ( mph kmh ) Pressure ( in mb ) Visibility ( mi km ) Precip ( " mm )
12:52 am 00:52 Partly Cloudy 78 25.6 66 18.9 67 67 N 8 13 29.88 1012 10 16.09344 0 0
1:52 am 01:52 Partly Cloudy 77 25 65 18.3 66 66 NNW 7 11 29.91 1013 10 16.09344 0 0
2:52 am 02:52 Partly Cloudy 75 23.9 64 17.8 69 69 NNW 7 11 29.91 1013 10 16.09344 0 0
3:52 am 03:52 Mostly Cloudy 76 24.4 64 17.8 67 67 NNW 5 7 29.91 1013 10 16.09344 0 0
4:52 am 04:52 Mostly Cloudy 74 23.3 64 17.8 71 71 NNW 7 11 29.94 1014 10 16.09344 0 0
5:52 am 05:52 Partly Cloudy 73 22.8 65 18.3 76 76 NNW 7 11 29.94 1014 10 16.09344 0 0
6:52 am 06:52 Partly Cloudy 74 23.3 66 18.9 76 76 N 6 9 29.97 1015 10 16.09344 0 0
7:52 am 07:52 Partly Cloudy 77 25 65 18.3 66 66 NNW 8 13 29.97 1015 10 16.09344 0 0
8:52 am 08:52 Mostly Sunny 80 26.7 65 18.3 60 60 NNW 6 9 29.97 1015 10 16.09344 0 0
9:52 am 09:52 Mostly Sunny 82 27.8 65 18.3 56 56 WNW 7 11 30 1016 10 16.09344 0 0
10:52 am 10:52 Mostly Sunny 84 28.9 63 17.2 49 49 VRB 7 11 30 1016 10 16.09344 0 0
11:52 am 11:52 Mostly Sunny 86 30 64 17.8 48 48 NNW 6 9 30 1016 10 16.09344 0 0
12:52 pm 12:52 Mostly Sunny 87 30.6 64 17.8 46 46 NE 5 7 29.97 1015 10 16.09344 0 0
1:52 pm 13:52 Mostly Sunny 88 31.1 61 16.1 40 40 VRB 7 11 29.97 1015 10 16.09344 0 0
2:52 pm 14:52 Mostly Sunny 89 31.7 61 16.1 39 39 W 9 15 29.94 1014 10 16.09344 0 0
3:52 pm 15:52 Mostly Sunny 91 32.8 60 15.6 35 35 VRB 6 9 29.94 1014 10 16.09344 0 0
4:52 pm 16:52 Mostly Sunny 90 32.2 63 17.2 41 41 WSW 8 13 29.94 1014 10 16.09344 0 0
5:52 pm 17:52 Mostly Sunny 91 32.8 62 16.7 38 38 WSW 9 15 29.91 1013 10 16.09344 0 0
6:52 pm 18:52 Mostly Sunny 89 31.7 64 17.8 43 43 SW 10 17 29.91 1013 10 16.09344 0 0
7:52 pm 19:52 Mostly Sunny 87 30.6 66 18.9 50 50 SW 8 13 29.94 1014 10 16.09344 0 0
8:52 pm 20:52 Clear 85 29.4 66 18.9 53 53 SSW 7 11 29.94 1014 10 16.09344 0 0
9:52 pm 21:52 Mostly Clear 83 28.3 68 20 61 61 SW 7 11 29.97 1015 10 16.09344 0 0
10:52 pm 22:52 Mostly Cloudy 82 27.8 67 19.4 60 60 SW 5 7 29.97 1015 10 16.09344 0 0
11:52 pm 23:52 Mostly Cloudy 80 26.7 71 21.7 74 74 S 6 9 29.94 1014 10 16.09344 0 0

Powered by AerisWeather